Location: Berlin
(42.3812°N, 71.6370°W)
Time: 20:36:49
(UTC+00:00)

BREEZE-M DEB (TANK) - Pass Details

Date: 15 November 2025
Orbit: 357 x 13413 km, 46.0° (Epoch: 10 December)

Event Time Altitude Azimuth Distance (km) Brightness Sun altitude
Exits shadow 09:53:02 33° 183° (S) 642 2.7 -19.3°
Maximum altitude 09:53:37 39° 148° (SSE) 585 2.7 -19.2°
Drops below altitude 10° 09:56:43 10° 76° (ENE) 1,777 5.9 -18.7°
Sets 09:59:51 0° 69° (ENE) 3,343 7.4 -18.1°
